Wind_Speed
15 13 12 11 11 11 10 10 10 9 9 9 10 11 11 14 17 20 21 21 22 22 23 23 23 23 23 21 17 12 11 12 12 12 13 14 14 15 15 15 15 15
18 16 15 15 14 14 13 12 11 11 11 10 10 10 12 17 20 21 22 22 23 23 23 23 24 25 25 20 14 12 12 12 13 13 14 15 15 15 16 16 16 16
20 20 20 19 19 19 18 17 14 12 11 11 11 11 14 19 22 23 23 24 25 25 26 26 26 27 26 20 14 13 14 14 15 15 14 14 14 14 15 15 15 16
19 20 20 19 19 19 20 19 17 14 13 13 14 15 18 21 23 24 25 26 27 28 29 29 29 28 28 23 17 16 16 16 16 17 16 15 15 15 15 15 16 18
16 18 18 18 19 19 20 20 18 16 14 14 17 20 22 23 23 24 26 27 29 30 32 33 32 30 29 26 21 18 17 17 18 19 19 17 17 17 17 17 18 19
15 16 16 17 19 20 21 19 18 18 16 15 18 22 23 23 24 25 26 28 30 32 33 34 34 33 30 27 23 20 18 18 19 20 20 18 17 18 18 19 19 20
15 16 16 18 19 20 20 20 20 20 19 18 20 21 22 22 23 24 24 25 27 30 32 33 34 34 32 27 23 22 19 18 20 20 20 20 19 19 19 19 19 19
16 17 18 19 20 20 20 20 20 20 21 21 21 21 21 21 21 22 21 21 22 24 27 30 31 32 31 27 24 23 21 19 20 20 21 21 20 20 21 20 20 20
17 18 18 20 20 20 20 19 19 19 21 21 20 20 21 21 21 21 19 18 19 20 21 24 26 29 30 28 26 25 23 21 21 20 20 20 20 21 22 21 21 21
18 18 18 19 19 19 19 18 17 17 18 19 19 19 20 20 21 21 18 17 18 19 19 20 22 26 28 29 27 26 24 23 22 20 19 19 19 20 21 22 22 22
18 18 18 18 18 18 17 16 16 16 16 17 17 18 19 20 21 21 19 17 16 18 19 19 21 24 27 28 27 25 24 24 23 22 20 18 18 19 20 21 21 22
17 17 17 17 17 16 16 16 16 16 16 16 17 17 18 19 20 21 21 18 16 16 18 19 20 23 25 26 26 25 24 24 23 22 20 18 18 19 19 20 21 22
16 16 16 16 16 16 17 17 17 18 17 17 17 17 18 20 20 21 21 20 17 16 17 18 20 22 22 23 24 24 24 23 23 22 20 19 19 19 19 20 21 21
15 15 16 16 17 18 18 18 19 19 19 18 19 19 19 19 20 20 21 21 19 17 17 18 20 22 24 24 26 27 26 25 26 24 22 20 19 19 20 21 21 21
16 16 17 18 19 19 19 19 20 20 20 21 20 19 19 19 20 20 21 22 21 18 17 18 19 24 29 29 30 32 31 28 28 26 23 21 20 19 20 21 21 21
16 17 18 19 19 19 19 20 21 22 22 21 20 19 19 19 20 21 22 23 21 18 18 17 18 25 30 31 32 34 34 31 28 28 25 22 21 21 22 23 22 21
16 17 18 18 19 20 21 21 22 23 22 21 20 20 20 20 22 22 23 24 21 18 17 16 18 25 29 30 31 33 35 32 27 28 27 23 23 24 24 24 23 22
16 16 17 18 19 21 22 22 23 23 22 21 20 20 20 21 23 23 23 25 22 18 17 15 18 24 27 29 31 33 35 32 26 26 26 23 24 24 23 24 24 23
16 16 17 18 19 21 22 23 23 23 22 22 21 21 21 22 23 23 23 24 22 18 16 15 18 23 26 29 31 32 35 32 26 25 24 23 24 24 23 23 23 23
16 16 17 18 19 20 21 22 23 23 23 23 22 22 22 22 22 23 23 24 22 19 15 14 19 24 26 28 30 33 35 32 26 24 24 23 24 24 23 23 23 24
16 17 18 18 18 19 20 21 23 24 24 23 23 22 21 20 20 22 22 22 23 21 18 17 22 25 25 27 29 33 34 29 24 24 25 24 24 24 23 22 22 24
17 17 17 16 17 18 19 20 22 24 24 24 23 22 20 19 18 20 21 21 22 23 21 21 23 25 25 25 28 33 33 27 24 25 26 25 25 24 23 22 22 24
16 16 16 16 16 17 19 20 21 23 24 25 23 22 21 19 17 17 19 20 21 22 23 22 23 24 25 25 27 32 32 26 24 26 25 25 26 25 24 23 23 24
15 15 15 15 15 17 19 20 20 21 22 23 23 21 20 19 18 18 18 19 20 21 22 22 23 23 25 25 27 30 30 25 24 26 26 26 26 26 25 25 25 25
15 15 15 15 16 18 19 19 20 19 20 22 21 20 19 20 20 19 18 19 20 21 22 23 23 23 25 25 25 28 29 26 24 26 27 27 27 27 26 26 26 26
14 14 15 15 16 17 18 19 19 18 18 20 20 19 19 21 21 20 19 18 19 20 21 23 23 23 24 25 24 25 28 27 24 24 26 26 27 28 27 26 28 27
Wind_Direction
79 77 75 73 71 69 69 70 69 68 64 61 62 58 51 46 45 44 41 37 35 32 29 26 23 20 17 14 11 8 4 2 1 358 356 358 357 353 350 344 338 332
78 78 78 76 74 74 72 72 69 65 64 60 59 57 52 51 49 46 43 40 37 34 31 28 26 24 22 18 14 12 8 5 4 1 359 2 1 358 357 352 347 341
78 77 78 76 76 76 75 75 70 63 62 58 55 57 53 52 50 47 45 43 40 38 35 32 30 29 26 22 16 14 11 7 6 2 359 359 358 354 353 351 348 344
74 74 74 74 74 73 72 71 66 60 60 57 55 58 56 53 51 49 47 45 43 41 38 35 33 30 28 25 19 13 10 9 6 3 2 359 356 353 350 349 345 343
71 71 71 70 69 70 68 66 62 59 59 57 56 58 58 56 53 51 49 47 45 42 39 37 34 30 28 25 21 15 10 9 6 4 3 0 359 357 352 349 346 343
71 69 68 66 67 68 67 63 61 62 60 58 58 58 58 57 55 52 49 47 44 42 40 37 34 31 28 25 21 15 10 8 4 3 3 359 358 358 355 351 347 345
75 71 69 69 68 67 66 64 64 64 63 63 62 59 56 55 53 52 48 44 43 41 40 38 34 32 29 25 19 15 11 7 4 3 2 359 355 354 353 352 348 344
80 76 73 71 69 66 65 65 63 63 64 64 61 58 56 53 49 48 45 41 39 37 36 36 33 31 30 26 21 16 11 7 4 2 2 359 356 354 352 349 347 344
83 79 75 70 67 65 64 63 62 62 62 62 59 57 56 53 49 47 44 41 37 33 31 30 29 29 29 28 25 20 14 9 6 3 1 358 356 355 352 349 348 346
83 79 74 69 66 63 62 62 61 60 59 58 57 55 54 53 51 48 45 42 39 35 31 28 25 25 27 28 27 23 17 12 10 6 2 360 355 353 352 350 349 347
82 77 71 67 65 63 61 59 58 58 56 55 55 54 53 52 50 48 46 43 40 36 33 30 25 24 25 26 24 22 18 14 12 9 3 0 357 353 352 352 350 346
80 75 70 66 64 62 60 58 57 57 56 54 54 54 53 52 50 48 46 44 42 38 36 33 28 24 24 23 21 19 16 13 12 9 4 360 356 354 353 353 351 348
80 74 70 67 65 64 63 60 59 58 56 55 55 55 53 51 50 48 47 45 44 39 36 34 30 25 22 20 19 17 13 11 10 6 3 359 355 354 354 352 351 350
82 76 72 70 69 68 65 63 60 58 57 56 56 56 54 51 49 48 46 45 44 41 37 34 30 26 23 20 19 18 14 11 9 6 2 359 357 355 354 353 351 349
85 81 78 74 72 68 64 62 60 58 57 56 56 56 55 53 50 48 46 44 43 40 36 35 30 27 26 24 21 20 17 12 9 6 1 357 356 356 355 354 351 348
90 86 80 74 70 65 63 61 59 59 58 57 57 57 56 55 51 48 45 43 41 38 35 35 30 28 29 27 23 22 19 14 8 4 1 357 356 357 356 353 351 348
95 89 80 72 68 65 64 62 61 60 59 58 59 57 55 53 50 47 45 43 41 37 35 35 29 28 28 25 23 22 19 16 8 2 0 359 359 360 356 352 350 348
99 90 80 73 69 67 66 64 62 61 58 56 57 55 53 52 49 48 45 44 43 38 35 33 27 26 26 24 21 20 19 16 7 360 0 1 2 1 356 353 351 348
102 93 83 76 71 69 68 65 63 60 57 56 55 54 55 53 51 50 47 45 44 38 33 31 25 23 24 23 20 18 18 15 6 1 4 5 4 1 356 355 353 349
103 95 87 80 74 71 70 67 65 62 59 58 56 54 55 54 52 51 48 46 45 41 34 30 26 23 22 20 19 17 15 13 7 5 8 6 4 3 359 358 356 353
104 97 90 83 78 74 71 69 67 65 62 60 58 56 56 55 52 51 48 46 46 43 37 31 28 25 22 19 19 17 14 12 10 10 10 9 7 5 2 1 359 357
105 100 95 88 81 75 72 70 68 66 65 64 61 59 58 55 51 49 46 45 44 42 38 33 29 27 23 21 20 18 15 14 13 13 12 10 8 6 4 3 0 358
107 104 99 92 84 77 73 72 70 68 67 66 64 60 58 55 49 45 43 42 42 41 37 33 30 28 25 22 21 20 17 16 16 16 13 11 9 7 4 2 360 358
111 108 103 95 87 81 76 73 72 70 68 68 66 62 58 55 51 46 43 42 42 41 39 36 32 30 28 25 22 21 19 18 17 15 13 11 9 7 4 1 358 357
115 111 105 99 91 85 80 76 74 73 71 69 67 62 57 55 53 50 46 45 46 43 40 39 36 32 29 25 22 21 20 19 18 14 11 10 8 6 4 2 359 357
120 114 107 102 95 88 83 79 76 74 72 69 66 62 58 55 55 53 49 47 47 44 41 39 36 32 27 23 22 22 20 19 18 13 9 7 6 6 4 2 2 1
Height
854 854 854 853 853 852 852 852 852 852 852 852 852 852 851 851 850 848 847 847 846 845 844 843 842 840 838 836 835 834 833 832 831 829 828 826 825 823 822 820 819 818
855 855 855 854 853 853 852 852 853 853 853 853 853 853 852 851 850 849 848 847 847 846 845 843 842 840 838 836 836 835 834 833 831 830 828 827 825 823 822 820 819 818
857 856 856 855 854 853 853 852 852 853 853 853 853 853 852 851 850 849 849 848 848 846 845 843 842 840 838 837 837 836 835 833 832 830 829 827 825 824 822 820 819 817
859 858 857 856 855 854 853 852 852 853 854 854 853 853 852 851 850 850 849 849 848 847 845 843 842 840 839 837 837 836 835 834 833 831 829 827 826 824 822 821 819 817
860 860 859 857 856 855 854 853 853 854 854 854 854 853 852 851 851 851 850 849 848 847 845 844 842 840 839 838 837 836 836 834 833 831 830 828 826 825 823 821 819 817
861 861 860 858 857 856 855 854 855 854 855 855 854 853 853 853 852 852 851 850 849 847 846 844 843 842 840 839 838 837 836 835 834 832 830 828 826 825 823 821 819 817
862 862 861 860 858 857 857 856 856 856 856 856 855 855 855 854 854 853 852 851 850 849 848 847 846 844 842 841 840 839 838 836 834 832 831 829 827 825 823 821 819 817
863 863 862 861 860 859 859 858 858 858 858 858 857 857 857 856 856 855 854 853 852 851 851 849 848 847 845 843 842 840 839 837 835 833 832 830 828 826 824 821 819 817
864 864 863 863 862 861 861 861 861 861 860 859 859 859 859 858 857 856 855 855 855 854 853 852 851 849 847 845 844 842 840 839 837 835 833 831 829 826 824 822 820 817
865 865 865 864 863 863 863 863 863 863 862 861 861 861 860 860 859 858 857 857 857 856 855 854 853 851 849 847 845 844 842 840 838 836 834 831 830 827 825 823 820 818
867 867 866 865 865 865 865 865 864 864 864 863 863 862 861 861 860 859 859 858 858 858 857 857 855 853 850 849 847 845 844 842 839 837 834 832 830 828 826 823 821 818
869 869 868 868 867 867 867 867 866 865 865 864 864 863 862 862 861 861 860 859 859 859 859 858 856 854 852 850 848 846 845 842 840 837 835 833 830 828 826 823 821 818
870 870 870 869 869 869 868 868 867 866 865 865 864 864 863 863 862 862 861 861 860 860 860 859 857 855 853 851 849 847 845 842 840 837 835 832 830 828 826 823 821 819
872 872 872 871 871 870 869 868 868 867 866 865 865 864 864 864 863 863 863 862 861 861 860 859 857 856 853 851 850 847 845 842 839 837 834 832 830 827 826 824 821 819
874 873 873 872 872 871 870 869 869 868 867 866 866 865 865 865 865 864 863 862 862 861 861 859 858 857 855 853 850 847 845 842 839 837 834 831 829 827 825 824 821 819
875 875 874 874 873 872 871 871 870 869 868 867 867 867 866 866 865 865 864 863 862 862 861 860 859 858 857 855 852 849 846 843 840 837 834 831 829 827 825 823 821 819
876 876 876 875 874 874 872 871 871 870 869 869 868 868 867 867 866 865 864 863 863 863 862 862 861 860 858 856 854 850 847 843 840 837 834 831 830 828 826 824 821 818
877 877 877 876 875 875 874 873 872 871 871 870 869 869 868 868 867 866 865 865 864 864 864 864 863 861 859 857 854 851 848 844 841 838 835 833 832 830 827 825 822 819
878 878 878 877 877 876 875 875 874 873 872 871 870 870 869 869 868 868 867 866 866 866 866 865 864 862 860 857 854 851 848 844 842 840 837 836 834 831 829 826 823 820
880 879 879 878 878 878 877 876 875 875 874 873 872 871 870 870 870 869 869 868 868 868 867 867 865 862 860 857 854 852 848 845 843 841 839 837 835 832 829 827 824 821
880 880 880 880 880 879 879 878 877 876 875 874 874 873 872 872 872 871 871 870 870 869 868 867 865 863 860 857 855 852 848 845 844 842 840 838 835 833 830 828 825 822
881 880 881 881 881 880 880 879 879 878 877 876 876 875 875 874 874 873 873 872 871 870 868 867 865 863 861 858 856 853 849 847 845 843 840 838 836 833 831 828 826 823
881 882 882 882 882 882 881 881 880 879 879 878 878 877 877 876 875 874 874 873 872 870 869 868 866 864 862 859 857 854 850 848 846 844 842 839 837 834 832 829 827 825
882 883 883 883 883 883 882 882 882 881 881 880 880 879 878 877 876 876 875 874 872 871 870 869 867 865 863 861 858 855 852 850 848 846 843 840 837 835 833 830 827 825
883 883 883 884 884 884 883 883 883 883 883 882 881 881 880 879 878 877 876 875 873 872 871 869 868 866 864 862 859 856 853 851 849 847 844 841 838 836 833 831 828 825
884 884 884 884 885 885 885 885 885 885 885 884 883 882 881 880 879 877 877 876 875 873 872 870 869 867 865 862 860 857 855 853 851 848 845 843 840 837 834 831 828 826